• In Russia
  • List of Countries
  • For 7 days
  • Water Temperature
  • Satellite Maps
  • Weather Map
  • Weather Widgets
  • user-avatar
    Login

    Hourly Weather Hobart

    Today, 5 December, Monday

    Time Temperature Precipitation Wind Pressure Humidity
    00:00 +19°C° 0 mm 6 mps 735 mmHg 63%
    01:00 +18°C° 0 mm 7 mps 734 mmHg 68%
    02:00 +17°C° 0.1 mm 7 mps 734 mmHg 71%
    03:00 +17°C° 0.1 mm 8 mps 735 mmHg 73%
    04:00 +17°C° 0 mm 6 mps 734 mmHg 78%
    05:00 +16°C° 0 mm 7 mps 735 mmHg 74%
    06:00 +15°C° 0 mm 8 mps 736 mmHg 71%
    07:00 +13°C° 0 mm 8 mps 738 mmHg 68%
    08:00 +13°C° 0 mm 8 mps 738 mmHg 65%
    09:00 +15°C° 0 mm 8 mps 739 mmHg 61%
    10:00 +16°C° 0 mm 8 mps 740 mmHg 58%
    11:00 +16°C° 0 mm 8 mps 740 mmHg 53%
    12:00 +17°C° 0 mm 7 mps 741 mmHg 49%
    13:00 +18°C° 0 mm 7 mps 742 mmHg 45%
    14:00 +18°C° 0 mm 7 mps 742 mmHg 45%
    15:00 +17°C° 0 mm 6 mps 742 mmHg 45%
    16:00 +19°C° 0 mm 5 mps 743 mmHg 43%
    17:00 +17°C° 0 mm 5 mps 743 mmHg 50%
    18:00 +15°C° 0 mm 4 mps 744 mmHg 58%
    19:00 +13°C° 0 mm 4 mps 744 mmHg 66%
    20:00 +11°C° 0 mm 4 mps 745 mmHg 73%
    21:00 +10°C° 0 mm 3 mps 745 mmHg 80%
    22:00 +8°C° 0 mm 3 mps 745 mmHg 85%
    23:00 +8°C° 0 mm 2 mps 745 mmHg 85%

    Tomorrow, 6 December, Tuesday

    Time Temperature Precipitation Wind Pressure Humidity
    00:00 +8°C° 0 mm 2 mps 745 mmHg 85%
    01:00 +9°C° 0 mm 2 mps 745 mmHg 85%
    02:00 +9°C° 0 mm 2 mps 745 mmHg 85%
    03:00 +9°C° 0 mm 2 mps 744 mmHg 85%
    04:00 +9°C° 0 mm 2 mps 744 mmHg 85%
    05:00 +9°C° 0.1 mm 2 mps 744 mmHg 82%
    06:00 +10°C° 0.1 mm 2 mps 744 mmHg 78%
    07:00 +12°C° 0.1 mm 2 mps 744 mmHg 74%
    08:00 +13°C° 0.1 mm 2 mps 744 mmHg 68%
    09:00 +15°C° 0.1 mm 2 mps 744 mmHg 61%
    10:00 +16°C° 0.1 mm 2 mps 744 mmHg 54%
    11:00 +17°C° 0 mm 3 mps 744 mmHg 52%
    12:00 +17°C° 0 mm 4 mps 743 mmHg 49%
    13:00 +17°C° 0 mm 5 mps 743 mmHg 47%
    14:00 +17°C° 0 mm 5 mps 743 mmHg 47%
    15:00 +16°C° 0 mm 5 mps 743 mmHg 47%
    16:00 +16°C° 0 mm 6 mps 743 mmHg 47%
    17:00 +15°C° 0 mm 5 mps 743 mmHg 54%
    18:00 +14°C° 0 mm 4 mps 743 mmHg 60%
    19:00 +12°C° 0 mm 4 mps 744 mmHg 66%
    20:00 +11°C° 0 mm 4 mps 744 mmHg 72%
    21:00 +10°C° 0 mm 4 mps 744 mmHg 77%
    22:00 +8°C° 0 mm 4 mps 745 mmHg 83%
    23:00 +8°C° 0 mm 4 mps 745 mmHg 85%

    Day after tomorrow, 7 December, Wednesday

    Time Temperature Precipitation Wind Pressure Humidity
    00:00 +8°C° 0 mm 4 mps 744 mmHg 88%
    01:00 +7°C° 0 mm 4 mps 744 mmHg 90%
    02:00 +7°C° 0 mm 4 mps 744 mmHg 90%
    03:00 +7°C° 0 mm 4 mps 744 mmHg 89%
    04:00 +7°C° 0 mm 4 mps 744 mmHg 89%
    05:00 +10°C° 0 mm 4 mps 744 mmHg 83%
    06:00 +12°C° 0 mm 4 mps 745 mmHg 78%
    07:00 +13°C° 0 mm 4 mps 745 mmHg 72%
    08:00 +15°C° 0 mm 4 mps 745 mmHg 66%
    09:00 +17°C° 0 mm 4 mps 745 mmHg 61%
    10:00 +18°C° 0 mm 4 mps 745 mmHg 56%
    11:00 +19°C° 0 mm 4 mps 745 mmHg 52%
    12:00 +21°C° 0 mm 4 mps 745 mmHg 48%
    13:00 +22°C° 0 mm 3 mps 744 mmHg 44%
    14:00 +22°C° 0 mm 4 mps 744 mmHg 45%
    15:00 +22°C° 0 mm 4 mps 744 mmHg 47%
    16:00 +21°C° 0 mm 4 mps 743 mmHg 49%
    17:00 +20°C° 0 mm 3 mps 743 mmHg 56%
    18:00 +18°C° 0 mm 3 mps 743 mmHg 63%
    19:00 +17°C° 0 mm 2 mps 742 mmHg 70%
    20:00 +15°C° 0 mm 2 mps 742 mmHg 77%
    21:00 +13°C° 0 mm 2 mps 742 mmHg 83%
    22:00 +10°C° 0 mm 2 mps 741 mmHg 90%
    23:00 +10°C° 0 mm 2 mps 741 mmHg 88%

    8 December, Thursday

    Time Temperature Precipitation Wind Pressure Humidity
    00:00 +10°C° 0 mm 3 mps 740 mmHg 87%
    01:00 +10°C° 0 mm 3 mps 739 mmHg 85%
    02:00 +10°C° 0 mm 3 mps 739 mmHg 84%
    03:00 +9°C° 0 mm 3 mps 738 mmHg 83%
    04:00 +9°C° 0 mm 3 mps 737 mmHg 81%
    05:00 +10°C° 0.1 mm 3 mps 736 mmHg 80%
    06:00 +11°C° 0.1 mm 4 mps 735 mmHg 79%
    07:00 +13°C° 0.1 mm 4 mps 734 mmHg 77%
    08:00 +12°C° 3.3 mm 3 mps 734 mmHg 84%
    09:00 +13°C° 3.3 mm 2 mps 733 mmHg 90%
    10:00 +13°C° 3.3 mm 1 mps 732 mmHg 96%
    11:00 +15°C° 0.1 mm 2 mps 732 mmHg 87%
    12:00 +16°C° 0.1 mm 3 mps 731 mmHg 79%
    13:00 +18°C° 0.1 mm 4 mps 731 mmHg 70%
    14:00 +16°C° 0.1 mm 5 mps 731 mmHg 69%
    15:00 +15°C° 0.1 mm 6 mps 732 mmHg 69%
    16:00 +15°C° 0.1 mm 6 mps 732 mmHg 68%
    17:00 +12°C° 0.1 mm 7 mps 733 mmHg 72%
    18:00 +11°C° 0.1 mm 7 mps 734 mmHg 76%
    19:00 +9°C° 0.1 mm 8 mps 735 mmHg 80%
    20:00 +9°C° 0.1 mm 8 mps 736 mmHg 81%
    21:00 +7°C° 0.1 mm 8 mps 736 mmHg 82%
    22:00 +6°C° 0.1 mm 8 mps 737 mmHg 83%
    23:00 +6°C° 0 mm 8 mps 738 mmHg 82%

    9 December, Friday

    Time Temperature Precipitation Wind Pressure Humidity
    00:00 +5°C° 0 mm 8 mps 738 mmHg 81%
    01:00 +5°C° 0 mm 8 mps 738 mmHg 80%
    02:00 +5°C° 0.1 mm 8 mps 739 mmHg 80%
    03:00 +5°C° 0.1 mm 8 mps 739 mmHg 79%
    04:00 +4°C° 0.1 mm 8 mps 740 mmHg 79%
    05:00 +5°C° 0.1 mm 8 mps 740 mmHg 76%
    06:00 +5°C° 0.1 mm 9 mps 741 mmHg 72%
    07:00 +6°C° 0.1 mm 9 mps 741 mmHg 68%
    08:00 +6°C° 0.2 mm 9 mps 742 mmHg 67%
    09:00 +7°C° 0.2 mm 9 mps 743 mmHg 66%
    10:00 +7°C° 0.2 mm 9 mps 743 mmHg 65%
    11:00 +8°C° 0.1 mm 9 mps 744 mmHg 63%
    12:00 +8°C° 0.1 mm 9 mps 744 mmHg 61%
    13:00 +8°C° 0.1 mm 10 mps 745 mmHg 59%
    14:00 +8°C° 0.1 mm 10 mps 745 mmHg 60%
    15:00 +8°C° 0.1 mm 10 mps 745 mmHg 60%
    16:00 +8°C° 0.1 mm 10 mps 746 mmHg 60%
    17:00 +8°C° 0.1 mm 9 mps 746 mmHg 62%
    18:00 +7°C° 0.1 mm 9 mps 747 mmHg 63%
    19:00 +7°C° 0.1 mm 8 mps 748 mmHg 64%
    20:00 +6°C° 0 mm 8 mps 748 mmHg 67%
    21:00 +6°C° 0 mm 7 mps 749 mmHg 69%
    22:00 +6°C° 0 mm 7 mps 749 mmHg 72%
    23:00 +5°C° 0 mm 6 mps 749 mmHg 76%

    10 December, Saturday

    Time Temperature Precipitation Wind Pressure Humidity
    00:00 +5°C° 0 mm 6 mps 749 mmHg 81%
    01:00 +5°C° 0 mm 5 mps 749 mmHg 85%
    02:00 +6°C° 0 mm 5 mps 749 mmHg 85%
    03:00 +6°C° 0 mm 5 mps 749 mmHg 84%
    04:00 +7°C° 0 mm 5 mps 749 mmHg 84%
    05:00 +8°C° 0 mm 5 mps 750 mmHg 80%
    06:00 +8°C° 0 mm 5 mps 750 mmHg 77%
    07:00 +9°C° 0 mm 5 mps 751 mmHg 73%
    08:00 +11°C° 0 mm 6 mps 751 mmHg 69%
    09:00 +13°C° 0 mm 6 mps 751 mmHg 65%
    10:00 +14°C° 0 mm 6 mps 751 mmHg 62%
    11:00 +14°C° 0 mm 6 mps 750 mmHg 62%
    12:00 +14°C° 0 mm 6 mps 750 mmHg 62%
    13:00 +14°C° 0 mm 6 mps 750 mmHg 63%
    14:00 +14°C° 0 mm 7 mps 750 mmHg 62%
    15:00 +14°C° 0 mm 7 mps 750 mmHg 62%
    16:00 +14°C° 0 mm 7 mps 750 mmHg 61%
    17:00 +12°C° 0 mm 7 mps 750 mmHg 66%
    18:00 +11°C° 0 mm 6 mps 750 mmHg 71%
    19:00 +10°C° 0 mm 6 mps 750 mmHg 76%
    20:00 +9°C° 0 mm 6 mps 751 mmHg 79%
    21:00 +9°C° 0 mm 5 mps 751 mmHg 82%
    22:00 +8°C° 0 mm 5 mps 751 mmHg 85%
    23:00 +8°C° 0 mm 5 mps 751 mmHg 85%
    Show more